Home > Weather > Kielce > Past weeks

Flag for Poland Past Weather in Kielce, Poland — Yesterday and Last 2 Weeks

Now
67 °F

Overcast.


Feels Like: 67 °F
Forecast: 57 / 70 °F
Wind: 3 mph from Northwest

Location: Kielce

Current Time: Aug 23, 2016 at 11:06:01 PM

Latest Report: Aug 23, 2016 at 10:00 PM


Visibility: 19 mi

Pressure: 30.29 "Hg

Humidity: 74%

Dew Point: 59 °F

Location of KielceLocation

Past Weather in Kielce — Graph

°F

Kielce Temperature Yesterday

Maximum temperature yesterday: 67 °F (at 4:00 PM)
Minimum temperature yesterday: 60 °F (at 5:00 AM)
Average temperature yesterday: 62 °F

High & Low Weather Summary for the Past Weeks

 TemperatureHumidityPressure
High82 °F (Aug 9, 2:00 PM)100% (Aug 11, 11:00 PM)30.33 "Hg (Aug 11, 11:00 PM)
Low40 °F (Aug 12, 4:00 AM)34% (Aug 19, 4:00 PM)29.84 "Hg (Aug 18, 5:00 PM)
Average61 °F78%30.08 "Hg
* Reported Aug 8 9:00 PM — Aug 23 9:00 PM, Kielce, Weather by CustomWeather, © 2016

Note: Actual official high and low records may vary slightly from our data, if they occured in-between our weather recording intervals... More about our weather records

Advertising

Kielce Weather History for the Previous 24 Hours

Scroll right to see more
 ConditionsComfort  
Time TempWeatherWind HumidityBarometerVisibility
9:00 PM
Tue, Aug 23
68 °FOvercast.3 mph67%30.27 "Hg14 mi
8:00 PM68 °FOvercast.1 mph66%30.27 "Hg22 mi
7:00 PM70 °FPartly sunny.3 mph58%30.26 "Hg28 mi
6:00 PM73 °FPartly sunny.3 mph51%30.25 "Hg25 mi
5:00 PM74 °FScattered clouds.3 mph47%30.25 "Hg22 mi
4:00 PM74 °FScattered clouds.3 mph51%30.26 "Hg25 mi
3:00 PM74 °FPartly sunny.3 mph53%30.26 "Hg25 mi
2:00 PM73 °FPartly sunny.5 mph48%30.27 "Hg22 mi
1:00 PM71 °FScattered clouds.3 mph53%30.28 "Hg19 mi
12:00 PM70 °FPartly sunny.2 mph57%30.29 "Hg22 mi
11:00 AM69 °FScattered clouds.3 mph61%30.30 "Hg19 mi
10:00 AM68 °FPassing clouds.3 mph70%30.31 "Hg16 mi
9:00 AM64 °FPassing clouds.1 mph85%30.31 "Hg12 mi
8:00 AM59 °FPassing clouds.1 mph96%30.33 "Hg9 mi
7:00 AM56 °FPartly sunny.1 mph99%30.33 "Hg6 mi
6:00 AM56 °FScattered clouds.2 mph99%30.33 "Hg6 mi
5:00 AM57 °FPassing clouds.1 mph99%30.31 "Hg6 mi
4:00 AM58 °FPassing clouds.1 mph97%30.30 "Hg7 mi
3:00 AM59 °FOvercast.1 mph97%30.30 "Hg7 mi
2:00 AM60 °FOvercast.1 mph94%30.29 "Hg9 mi
1:00 AM60 °FSprinkles. Overcast.1 mph95%30.30 "Hg7 mi
12:00 AM60 °FOvercast.1 mph95%30.29 "Hg8 mi
11:00 PM
Mon, Aug 22
61 °FOvercast.1 mph94%30.29 "Hg9 mi
Weather by CustomWeather, © 2016

See weather overviewHow to use our weather pages